TimeCST,TemperatureF,Dew PointF,Humidity,Sea Level PressureIn,VisibilityMPH,Wind Direction,Wind SpeedMPH,Gust SpeedMPH,PrecipitationIn,Events,Conditions,WindDirDegrees,DateUTC
12:20 AM,62.6,60.8,94,29.93,2.5,SE,10.4,-,0.03,Rain,Rain,140,2013-02-05 06:20:00
12:23 AM,62.6,62.6,100,29.93,1.8,SSE,12.7,-,0.06,Rain,Heavy Rain,160,2013-02-05 06:23:00
12:36 AM,62.6,62.6,100,29.93,1.5,SSE,16.1,33.4,0.28,Rain,Rain,160,2013-02-05 06:36:00
1:13 AM,62.6,62.6,100,29.93,9.0,WSW,11.5,-,0.00,Rain,Light Rain,240,2013-02-05 07:13:00
1:31 AM,60.8,60.8,100,29.92,2.5,SSW,9.2,-,0.04,Rain,Rain,210,2013-02-05 07:31:00
1:39 AM,60.8,60.8,100,29.92,4.0,South,9.2,-,0.05,Rain,Light Rain,190,2013-02-05 07:39:00
1:51 AM,62.1,61.0,96,29.92,8.0,SSW,10.4,-,0.05,,Overcast,210,2013-02-05 07:51:00
2:51 AM,61.0,59.0,93,29.91,10.0,SSW,6.9,-,0.01,,Overcast,210,2013-02-05 08:51:00
3:51 AM,61.0,61.0,100,29.93,10.0,WSW,6.9,-,N/A,,Mostly Cloudy,240,2013-02-05 09:51:00
4:27 AM,62.6,60.8,94,29.93,10.0,WSW,8.1,-,N/A,,Overcast,240,2013-02-05 10:27:00
4:37 AM,62.6,60.8,94,29.94,10.0,WSW,5.8,-,N/A,,Overcast,240,2013-02-05 10:37:00
4:46 AM,62.6,60.8,94,29.94,9.0,WSW,4.6,-,N/A,,Overcast,250,2013-02-05 10:46:00
4:51 AM,62.1,62.1,100,29.94,9.0,WSW,4.6,-,N/A,,Overcast,250,2013-02-05 10:51:00
5:35 AM,60.8,60.8,100,29.94,5.0,WNW,3.5,-,N/A,,Overcast,300,2013-02-05 11:35:00
5:51 AM,60.1,60.1,100,29.95,2.5,Calm,Calm,-,N/A,,Overcast,0,2013-02-05 11:51:00
6:03 AM,60.8,60.8,100,29.95,1.5,Calm,Calm,-,N/A,,Overcast,0,2013-02-05 12:03:00
6:22 AM,60.8,60.8,100,29.95,0.8,Calm,Calm,-,N/A,,Overcast,0,2013-02-05 12:22:00
6:36 AM,60.8,60.8,100,29.96,1.5,Calm,Calm,-,N/A,,Overcast,0,2013-02-05 12:36:00
6:51 AM,59.0,59.0,100,29.96,0.2,WNW,4.6,-,N/A,Fog,Fog,300,2013-02-05 12:51:00
7:12 AM,59.0,59.0,100,29.97,0.5,NW,3.5,-,N/A,Fog,Fog,320,2013-02-05 13:12:00
7:19 AM,57.2,57.2,100,29.97,0.2,Calm,Calm,-,N/A,Fog,Fog,0,2013-02-05 13:19:00
7:40 AM,57.2,57.2,100,29.98,0.2,Calm,Calm,-,N/A,Fog,Fog,0,2013-02-05 13:40:00
7:51 AM,57.9,57.9,100,29.99,0.2,Calm,Calm,-,N/A,Fog,Fog,0,2013-02-05 13:51:00
8:00 AM,57.2,57.2,100,29.99,0.2,Calm,Calm,-,N/A,Fog,Fog,0,2013-02-05 14:00:00
8:28 AM,59.0,59.0,100,30.00,0.2,NW,3.5,-,N/A,Fog,Fog,310,2013-02-05 14:28:00
8:51 AM,60.1,60.1,100,30.01,0.2,SSW,3.5,-,N/A,Fog,Fog,200,2013-02-05 14:51:00
9:24 AM,62.6,60.8,94,30.01,1.0,Calm,Calm,-,N/A,,Mist,0,2013-02-05 15:24:00
9:28 AM,62.6,62.6,100,30.01,3.0,WNW,3.5,-,N/A,,Mostly Cloudy,300,2013-02-05 15:28:00
9:39 AM,62.6,62.6,100,30.02,10.0,NW,5.8,-,N/A,,Scattered Clouds,310,2013-02-05 15:39:00
9:49 AM,60.8,60.8,100,30.02,1.8,NNW,6.9,-,N/A,,Scattered Clouds,330,2013-02-05 15:49:00
9:51 AM,61.0,60.1,97,30.02,1.2,NNW,6.9,-,N/A,,Scattered Clouds,330,2013-02-05 15:51:00
9:54 AM,60.8,60.8,100,30.02,0.8,NW,5.8,-,N/A,,Mist,320,2013-02-05 15:54:00
10:06 AM,60.8,60.8,100,30.02,2.0,NW,6.9,-,N/A,,Mostly Cloudy,320,2013-02-05 16:06:00
10:26 AM,62.6,60.8,94,30.02,8.0,NNW,4.6,-,N/A,,Mostly Cloudy,340,2013-02-05 16:26:00
10:42 AM,64.4,60.8,88,30.01,10.0,Calm,Calm,-,N/A,,Partly Cloudy,0,2013-02-05 16:42:00
10:51 AM,66.0,62.1,87,30.01,10.0,Variable,5.8,-,N/A,,Partly Cloudy,0,2013-02-05 16:51:00
11:00 AM,62.6,60.8,94,30.01,1.8,Calm,Calm,-,N/A,,Scattered Clouds,0,2013-02-05 17:00:00
11:11 AM,62.6,60.8,94,30.01,3.0,Variable,4.6,-,N/A,,Scattered Clouds,0,2013-02-05 17:11:00
11:51 AM,63.0,60.1,90,30.02,10.0,NW,3.5,-,N/A,,Mostly Cloudy,310,2013-02-05 17:51:00
12:12 PM,66.2,62.6,88,30.01,10.0,West,5.8,-,N/A,,Mostly Cloudy,280,2013-02-05 18:12:00
12:51 PM,66.9,63.0,87,30.00,10.0,WNW,4.6,-,N/A,,Overcast,290,2013-02-05 18:51:00
1:29 PM,64.4,60.8,88,29.98,10.0,Variable,3.5,-,N/A,,Mostly Cloudy,0,2013-02-05 19:29:00
1:47 PM,69.8,62.6,78,29.99,10.0,WSW,9.2,-,N/A,,Mostly Cloudy,250,2013-02-05 19:47:00
1:51 PM,68.0,63.0,84,29.99,10.0,WSW,6.9,-,N/A,,Mostly Cloudy,250,2013-02-05 19:51:00
1:59 PM,66.2,62.6,88,29.99,10.0,West,5.8,-,N/A,,Overcast,270,2013-02-05 19:59:00
2:51 PM,66.0,61.0,84,29.98,10.0,SW,3.5,-,N/A,,Overcast,230,2013-02-05 20:51:00
3:46 PM,66.2,60.8,83,29.98,10.0,North,4.6,-,N/A,,Overcast,350,2013-02-05 21:46:00
3:51 PM,66.0,61.0,84,29.98,10.0,NNE,5.8,-,N/A,,Mostly Cloudy,30,2013-02-05 21:51:00
4:07 PM,66.2,60.8,83,29.98,10.0,North,4.6,-,N/A,,Scattered Clouds,350,2013-02-05 22:07:00
4:51 PM,63.0,60.1,90,29.98,6.0,ENE,3.5,-,N/A,,Scattered Clouds,70,2013-02-05 22:51:00
5:51 PM,60.1,59.0,96,29.98,3.0,Calm,Calm,-,N/A,,Clear,0,2013-02-05 23:51:00
6:51 PM,-9999,-9999,N/A,30.01,-9999.0,North,-9999.0,-,N/A,,Unknown,0,2013-02-06 00:51:00
7:51 PM,-9999,-9999,N/A,30.03,-9999.0,North,-9999.0,-,N/A,,Unknown,0,2013-02-06 01:51:00
8:51 PM,-9999,-9999,N/A,30.05,-9999.0,North,-9999.0,-,N/A,,Unknown,0,2013-02-06 02:51:00
9:51 PM,-9999,-9999,N/A,30.05,-9999.0,North,-9999.0,-,N/A,,Unknown,0,2013-02-06 03:51:00
10:51 PM,-9999,-9999,N/A,30.06,-9999.0,North,-9999.0,-,N/A,,Unknown,0,2013-02-06 04:51:00
11:51 PM,-9999,-9999,N/A,30.05,-9999.0,North,-9999.0,-,N/A,,Unknown,0,2013-02-06 05:51:00